{"data":{"norad_id":52293,"epoch":"2026-05-25T03:16:28.848000Z","epoch_age_seconds":66340,"freshness":"FRESH","line1":"1 52293U 22041AJ  26145.13644500  .00000528  00000+0  51277-4 0  9991","line2":"2 52293  53.2127 115.9458 0001294  82.9094 277.2046 15.08836213226043","mean_motion":15.08836213,"eccentricity":0.0001294,"inclination_deg":53.2127,"raan_deg":115.9458,"arg_perigee_deg":82.9094,"mean_anomaly_deg":277.2046,"bstar":5.1277e-5,"rev_number":22604,"period_min":95.437794214712,"perigee_km":538.85978911212,"apogee_km":540.65013955249,"semimajor_km":6917.8919643323,"source":"CELESTRAK","updated_at":"2026-05-25T13:38:17.086308Z"}}